DMSP 5D-2 F13 DEB

Satellite information

Favourite Embed

Satellite Type and Status

DEBRISIN ORBIT

Key statistics

Satellite DMSP 5D-2 F13 DEB at a glance.

Uptime

11008

Days in orbit

Revolutions

≈ 14.2

Per day

Orbit

SSO

Sun Synchronous Orbit

Inclination

99.0

Latest

Satellite identification and parameters

Extended collection of information and parameters for DMSP 5D-2 F13 DEB.

Object identification

Identified? True

Debris? True

Object name: DMSP 5D-2 F13 DEB

International designator: 1995-015BH

Object number (NORAD): 40465

Object ID (CCSDS): 40465

Country: UNITED STATES OF AMERICA (US)

Current information (Y/N): Y

RCS size: SMALL

Orbital parameters

Period: 101.257 minutes

Inclination: 98.9815 deg

SMA: 7196.323 km

Apoapsis: 848.817 km

Periapsis: 787.56 km

RAAN: 147.7602 deg

Eccentricy: 0.0042561

Argument of periapsis: 143.374 deg

Mean anomaly: 217.036 deg

Mean motion: 14.22121696 rev/day

Mean motion (dot): 0.00004068 rev/day2

B* drag term: 0.0018395 1/REarth

Two-line elements (TLE)

Creation date: May 12, 2025, 10:46 p.m.

Reference frame: TEME

Reference center: EARTH

Epoch: May 12, 2025, 8:01 p.m. UTC

TLE line 0: 0 DMSP 5D-2 F13 DEB

TLE line 1: 1 40465U 95015BH 25132.83439852 .00004068 00000-0 18395-2 0 9990

TLE line 2: 2 40465 98.9815 147.7602 0042561 143.3740 217.0360 14.22121696527140

Live tracking on map

Real-time ground track for satellite DMSP 5D-2 F13 DEB.

In-orbit conjunctions

A list of the most updated potential collisions computed for object DMSP 5D-2 F13 DEB.

Target Orbit TCA Probability of collision Miss distance Type
DTUSAT SSO 2025-04-23 02:45:26 0.0001379523 485.0 (m) PAYLOAD
RADCAL LEO 2024-11-28 13:46:55 0.0002056322 112.0 (m) PAYLOAD
SL-16 DEB LEO 2024-11-15 20:09:48 0.0006768986 644.0 (m) DEBRIS

Associated space launch

Military meteorological satellite

DMSP 5D-2 F13 DEB was lifted into orbit during the mission ‘Atlas E | DMSP-5D2 F13’, on board a Atlas E space rocket.

The launch took place on March 24, 1995, 2:05 p.m. from Space Launch Complex 3W.

For more information about the launch, click the button.

Launch to space Atlas E | DMSP-5D2 F13
Atlas E | DMSP-5D2 F13

Agency: N/A

Status: Launch Successful

Launch date: March 24, 1995, 2:05 p.m. UTC

Rocket: Atlas E

Launch pad: Space Launch Complex 3W

Location: Vandenberg SFB, CA, USA

...

Latest news about this satellite

There are no fresh news available about this satellite. Check back as we update our databases every day.


Newsletter sign-up

Weekly statistics, charts and insights to help you stay on top of the space industry.